[Date Prev][Date Next][Thread Prev][Thread Next] - [Date Index][Thread Index][Author Index]

MIR Keps 10-5-00



MIR
1 16609U 86017A   00131.17159735  .00035246  00000-0  36692-3 0  6353
2 16609  51.6499  92.3557 0012912 283.1844  76.7692 15.64122245813173

----
Via the sarex mailing list at AMSAT.ORG courtesy of AMSAT-NA.
To unsubscribe, send "unsubscribe sarex" to Majordomo@amsat.org



AMSAT Top AMSAT Home